Regional Weather Roundup
Issued by NWS

Home | Current Version | Previous Version | Text Only | Print | Product List | Glossary Off
Versions: 1 2 3 4 5 6 7 8 9 10 11 12 13 14 15 16 17 18 19 20 21 22 23 24 25 26 27 28 29 30 31 32 33 34 35 36 37 38 39 40 41 42 43 44 45 46 47 48 49 50

000
ASUS45 KCYS 011310
RWRWY

WYOMING REGIONAL WEATHER ROUNDUP
NATIONAL WEATHER SERVICE CHEYENNE WY
700 AM MDT FRI AUG 01 2014

NOTE:  "FAIR" INDICATES FEW OR NO CLOUDS BELOW 12,000 FEET
WITH NO SIGNIFICANT WEATHER AND/OR OBSTRUCTIONS TO VISIBILITY.

WYZ001-011400-
YELLOWSTONE NATIONAL PARK

CITY           SKY/WX    TMP DP  RH WIND       PRES   REMARKS
LK YELLOWSTONE   N/A     38  36  92 CALM      30.45R
W YELLOWSTONE  NOT AVBL

$$
WYZ002>013-054>058-071-098>099-011400-
NORTHERN WYOMING

CITY           SKY/WX    TMP DP  RH WIND       PRES   REMARKS
JACKSON        CLEAR     48  41  76 CALM      30.36R
CODY           CLEAR     63  41  45 SW5       30.24R
GREYBULL       PTCLDY    59  41  51 SE6       30.17R
WORLAND        CLEAR     58  42  55 CALM      30.18R
SHERIDAN       MOSUNNY   58  45  62 CALM      30.15R
BUFFALO        MOSUNNY   64  39  39 W7        30.21R
GILLETTE       MOSUNNY   66  41  40 W13       30.15R
HULETT         FAIR      72  43  35 MISG      30.16
NEWCASTLE      FAIR      68  41  37 MISG      30.19

$$
WYZ014>020-022>026-101>103-011400-
CENTRAL WYOMING

CITY           SKY/WX    TMP DP  RH WIND       PRES   REMARKS
BIG PINEY      PTCLDY    49  45  86 CALM      30.37R
PINEDALE       CLOUDY    50  43  76 NW5       30.38S
DUBOIS         FAIR      50  37  62 NW9       30.38R
LANDER         PTCLDY    60  39  45 CALM      30.26R
RIVERTON       PTCLDY    59  46  62 NW7       30.26R
CASPER         CLEAR     53  41  63 CALM      30.26R
DOUGLAS        SUNNY     56  48  74 CALM      30.24R

$$
WYZ021-027>030-104>119-011400-
SOUTHERN WYOMING

CITY           SKY/WX    TMP DP  RH WIND       PRES   REMARKS
EVANSTON       MOCLDY    54  43  66 N5        30.34R
KEMMERER       MOSUNNY   50  39  66 N13       30.36S
FORT BRIDGER   FAIR      53  45  72 W5        30.37R
ROCK SPRINGS   CLEAR     56  37  49 E5        30.33R
DIXON          FAIR      50  40  68 CALM      30.33R
RAWLINS        CLEAR     51  43  74 N5        30.34R
SARATOGA       FAIR      46  41  81 CALM      30.36R
LARAMIE        SUNNY     46  43  89 CALM      30.36R
CHEYENNE       SUNNY     54  45  71 W8        30.31R
TORRINGTON     SUNNY     56  48  74 CALM      30.20R
PINE BLUFFS    FAIR      52  50  93 CALM      30.27R

$$



USA.gov is the U.S. government's official web portal to all federal, state and local government web resources and services.